DateTimeUTC,F1_A11,F1_S11,BsB_S11,BsG_S11,BsR_S11,BbsB_S11,BbsG_S11,BbsR_S11,BaB_A11,BaG_A11,BaR_A11,Tu_S11,T_S11,Uu_S11,U_S11,P_S11,T1_A11
2021-07-30T22:00:00Z,00000200,20000000,,,,,,,0000.01,0000.09,0000.11,20.7,27.6,07.0,04.6,0682.5,31.7
2021-07-30T22:01:00Z,00000200,20000000,,,,,,,-000.13,-000.18,-000.08,20.7,27.6,07.0,04.6,0682.5,31.7
2021-07-30T22:02:00Z,00000200,20000000,,,,,,,0000.29,-000.03,0000.11,20.7,27.6,06.9,04.5,0682.5,31.7
2021-07-30T22:03:00Z,00000200,60000000,,,,,,,0000.45,0001.02,0000.58,20.7,27.6,06.7,04.4,0682.5,31.7
2021-07-30T22:04:00Z,00000200,40000000,0004.64,0002.74,0001.38,0000.91,0000.36,0000.37,0001.14,0000.80,0000.85,20.8,27.4,06.7,04.5,0683.4,31.7
2021-07-30T22:05:00Z,00000200,00000000,0004.09,0003.06,0001.81,0000.45,0000.41,0000.29,0001.08,0001.00,0000.43,20.8,27.3,06.7,04.5,0683.4,31.7
2021-07-30T22:06:00Z,00000200,00000000,0005.03,0003.11,0001.68,0000.38,0000.61,0000.03,0001.38,0001.07,0000.93,20.8,27.3,06.8,04.6,0683.4,31.7
2021-07-30T22:07:00Z,00000200,00000000,0003.90,0003.35,0002.09,0000.02,0000.54,0000.39,0000.99,0000.95,0000.81,20.8,27.3,06.7,04.5,0683.4,31.7
2021-07-30T22:08:00Z,00000200,00000000,0004.47,0003.48,0001.91,0001.07,0000.45,0000.48,0001.31,0001.11,0000.46,20.8,27.3,06.8,04.6,0683.4,31.7
2021-07-30T22:09:00Z,00000200,00000000,0005.15,0003.73,0001.67,0000.67,0000.73,0000.67,0001.11,0001.25,0001.09,20.8,27.3,06.9,04.7,0683.4,31.7
2021-07-30T22:10:00Z,00000200,00000000,0005.26,0003.26,0001.84,0000.56,0000.47,0000.35,0001.53,0001.43,0001.12,20.8,27.3,06.8,04.6,0683.4,31.7
2021-07-30T22:11:00Z,00000200,00000000,0006.20,0003.47,0002.05,0000.53,0000.56,-000.29,0001.31,0000.98,0000.65,20.8,27.3,06.8,04.6,0683.4,31.7
2021-07-30T22:12:00Z,00000200,00000000,0005.21,0003.59,0001.97,0000.82,0000.40,0000.45,0001.11,0001.27,0001.09,20.8,27.3,06.7,04.6,0683.4,31.7
2021-07-30T22:13:00Z,00000200,00000000,0003.96,0003.15,0001.58,0000.84,0000.57,0000.11,0001.26,0000.77,0000.21,20.8,27.3,06.7,04.5,0683.4,31.7
2021-07-30T22:14:00Z,00000200,00000000,0004.11,0003.13,0002.15,0000.50,0000.39,0000.32,0001.01,0001.27,0000.47,20.8,27.3,06.7,04.6,0683.4,31.7
2021-07-30T22:15:00Z,00000200,00000000,0004.88,0002.86,0001.50,0001.18,0000.34,0000.22,0001.08,0000.70,0001.04,20.8,27.3,06.7,04.5,0683.4,31.7
2021-07-30T22:16:00Z,00000200,00000000,0003.75,0002.76,0001.57,0000.67,0000.44,0000.27,0001.03,0000.73,0000.91,20.8,27.2,06.6,04.5,0683.4,31.7
2021-07-30T22:17:00Z,00000200,00000000,0004.79,0003.19,0001.51,0000.57,0000.39,0000.38,0001.21,0001.13,0000.69,20.8,27.3,06.6,04.5,0683.4,31.7
2021-07-30T22:18:00Z,00000200,00000000,0004.18,0002.72,0001.69,0000.44,0000.62,0000.32,0000.99,0000.84,0000.25,20.8,27.2,06.6,04.5,0683.4,31.7
2021-07-30T22:19:00Z,00000200,00000000,0004.07,0002.64,0001.61,0000.90,0000.46,0000.46,0000.72,0001.06,0000.64,20.8,27.3,06.5,04.4,0683.4,31.7
2021-07-30T22:20:00Z,00000200,00000000,0005.14,0002.89,0001.71,0000.57,0000.23,0000.21,0001.09,0000.48,0000.57,20.8,27.3,06.5,04.4,0683.4,31.7
2021-07-30T22:21:00Z,00000200,00000000,0003.64,0002.81,0001.33,0000.24,0000.27,0000.36,0000.92,0001.02,0000.88,20.8,27.2,06.4,04.4,0683.4,31.7
2021-07-30T22:22:00Z,00000200,00000000,0004.51,0003.22,0002.00,0000.64,0000.49,0000.26,0001.15,0001.07,0000.42,20.8,27.2,06.5,04.4,0683.4,31.7
2021-07-30T22:23:00Z,00000200,00000000,0004.68,0003.28,0001.88,0000.81,0000.30,0000.54,0001.26,0001.01,0000.83,20.8,27.2,06.3,04.3,0683.4,31.7
2021-07-30T22:24:00Z,00000200,00000000,0005.34,0003.30,0001.54,0000.31,0000.68,0000.09,0001.03,0000.82,0000.72,20.8,27.2,06.3,04.3,0683.4,31.7
2021-07-30T22:25:00Z,00000200,00000000,0005.33,0003.23,0002.49,0000.94,0000.62,-000.07,0000.99,0001.17,0000.99,20.8,27.2,06.3,04.3,0683.4,31.7
2021-07-30T22:26:00Z,00000200,00000000,0004.62,0003.25,0001.93,0001.13,0000.33,0000.48,0001.40,0000.76,0000.28,20.8,27.2,06.3,04.3,0683.4,31.7
2021-07-30T22:27:00Z,00000200,00000000,0004.03,0003.22,0001.47,0000.83,0000.13,0000.19,0000.75,0001.22,0000.86,20.8,27.2,06.1,04.1,0683.4,31.7
2021-07-30T22:28:00Z,00000200,00000000,0004.25,0003.46,0001.72,0001.14,0000.47,0000.30,0001.26,0000.79,0000.76,20.8,27.2,06.0,04.1,0683.4,31.7
2021-07-30T22:29:00Z,00000200,00000000,0003.61,0002.89,0001.44,0000.23,0000.20,0000.40,0000.93,0000.76,0000.71,20.8,27.2,06.0,04.1,0683.4,31.7
2021-07-30T22:30:00Z,00000200,00000000,0004.21,0002.73,0001.47,0000.70,0000.49,0000.32,0000.69,0000.95,0000.35,20.8,27.2,05.9,04.0,0683.4,31.7
2021-07-30T22:31:00Z,00000200,00000000,0003.98,0002.31,0001.53,0000.63,0000.26,0000.17,0001.04,0000.61,0000.90,20.8,27.2,06.0,04.1,0683.4,31.7
2021-07-30T22:32:00Z,00000200,00000000,0004.75,0002.77,0001.36,0000.45,0000.47,0000.48,0000.98,0001.05,0000.25,20.8,27.2,05.9,04.0,0683.4,31.7
2021-07-30T22:33:00Z,00000200,00000000,0003.84,0002.49,0001.51,0000.09,-000.08,0000.29,0000.81,0000.60,0000.66,20.8,27.2,05.9,04.0,0683.4,31.7
2021-07-30T22:34:00Z,00000200,00000000,0003.66,0002.69,0001.93,0000.88,0000.39,0000.25,0001.10,0000.96,0000.95,20.8,27.2,05.9,04.0,0683.4,31.7
2021-07-30T22:35:00Z,00000200,00000000,0003.15,0002.59,0001.39,0000.43,0000.56,0000.52,0000.69,0000.87,0000.40,20.8,27.2,05.8,04.0,0683.4,31.7
2021-07-30T22:36:00Z,00000200,00000000,0003.83,0002.59,0001.38,0000.38,0000.68,0000.36,0001.12,0000.96,0000.55,20.8,27.2,05.9,04.0,0683.4,31.7
2021-07-30T22:37:00Z,00000200,00000000,0004.27,0002.44,0001.42,0000.18,0000.40,-000.07,0000.78,0000.90,0000.63,20.8,27.2,05.8,04.0,0683.4,31.7
2021-07-30T22:38:00Z,00000200,00000000,0004.54,0002.63,0001.23,0000.42,0000.45,-000.17,0001.06,0000.52,0000.58,20.8,27.2,05.7,03.9,0683.4,31.7
2021-07-30T22:39:00Z,00000200,00000000,0004.19,0002.90,0001.76,0000.89,0000.29,0000.67,0000.87,0000.60,0000.77,20.8,27.2,05.8,03.9,0683.4,31.6
2021-07-30T22:40:00Z,00000200,00000000,0003.99,0002.72,0001.68,0000.93,0000.16,0000.32,0000.86,0001.18,0000.05,20.8,27.2,05.6,03.8,0683.4,31.6
2021-07-30T22:41:00Z,00000200,00000000,0004.06,0002.52,0001.23,0000.56,0000.48,0000.32,0001.28,0000.52,0000.96,20.8,27.2,05.7,03.9,0683.4,31.6
2021-07-30T22:42:00Z,00000200,00000000,0003.89,0002.78,0001.81,0000.89,0000.39,0000.39,0000.62,0001.21,0000.41,20.8,27.2,05.6,03.8,0683.4,31.6
2021-07-30T22:43:00Z,00000200,00000000,0003.56,0003.02,0001.73,0000.21,0000.44,0000.05,0001.29,0001.06,0001.00,20.7,27.2,05.6,03.8,0683.4,31.6
2021-07-30T22:44:00Z,00000200,00000000,0003.83,0002.59,0001.90,0001.16,0000.40,0000.54,0001.16,0000.90,0000.75,20.8,27.2,05.5,03.7,0683.4,31.6
2021-07-30T22:45:00Z,00000200,00000000,0004.62,0002.81,0001.48,0000.38,0000.44,0000.14,0000.99,0001.07,0000.55,20.8,27.2,05.4,03.7,0683.4,31.6
2021-07-30T22:46:00Z,00000200,00000000,0004.47,0002.78,0001.81,0000.37,0000.39,0000.61,0001.10,0000.57,0000.48,20.7,27.2,05.4,03.7,0683.4,31.6
2021-07-30T22:47:00Z,00000200,00000000,0004.04,0002.80,0002.08,0000.18,0000.52,0000.18,0000.76,0000.98,0000.76,20.7,27.2,05.3,03.6,0683.3,31.6
2021-07-30T22:48:00Z,00000200,00000000,0004.39,0003.06,0001.67,0000.69,0000.45,0000.38,0001.01,0001.07,0000.56,20.7,27.1,05.3,03.6,0683.4,31.6
2021-07-30T22:49:00Z,00000200,00000000,0004.78,0003.26,0001.63,0000.63,0000.52,0000.60,0001.10,0000.63,0000.73,20.7,27.1,05.2,03.5,0683.3,31.6
2021-07-30T22:50:00Z,00000200,00000000,0004.45,0002.88,0001.57,0000.05,0000.45,0000.03,0000.82,0000.94,0000.82,20.7,27.2,05.2,03.5,0683.3,31.6
2021-07-30T22:51:00Z,00000200,00000000,0005.26,0002.94,0001.62,0000.66,0000.47,0000.25,0001.25,0000.97,0000.37,20.7,27.1,05.1,03.5,0683.3,31.6
2021-07-30T22:52:00Z,00000200,00000000,0005.04,0003.24,0001.72,0000.67,0000.55,0000.25,0000.94,0000.97,0000.79,20.7,27.1,05.1,03.4,0683.4,31.6
2021-07-30T22:53:00Z,00000200,00000000,0004.87,0002.98,0001.76,0001.07,0000.27,0000.32,0001.12,0000.99,0000.61,20.7,27.1,05.1,03.5,0683.4,31.6
2021-07-30T22:54:00Z,00000200,00000000,0004.69,0002.93,0001.91,0000.65,0000.55,0000.46,0001.29,0001.12,0000.93,20.7,27.1,05.0,03.4,0683.4,31.6
2021-07-30T22:55:00Z,00000200,00000000,0004.52,0002.89,0002.07,0000.29,0000.50,0000.14,0001.07,0000.62,0000.26,20.7,27.1,05.0,03.4,0683.4,31.6
2021-07-30T22:56:00Z,00000200,00000000,0004.12,0003.33,0001.67,0000.31,0000.78,0000.39,0001.17,0001.18,0001.19,20.7,27.1,05.0,03.4,0683.4,31.6
2021-07-30T22:57:00Z,00000200,40000000,,,,,,,0000.38,0000.54,0000.35,20.8,27.2,05.1,03.5,0683.2,31.6
2021-07-30T22:58:00Z,00000200,60000000,,,,,,,-000.18,-000.10,-000.41,20.5,27.3,05.2,03.4,0682.4,31.6
2021-07-30T22:59:00Z,00000200,20000000,,,,,,,0000.04,0000.17,0000.17,20.5,27.4,05.0,03.3,0682.4,31.6
